Time,TemperatureF,DewpointF,PressureIn,WindDirection,WindDirectionDegrees,WindSpeedMPH,WindSpeedGustMPH,Humidity,HourlyPrecipIn,Conditions,Clouds,dailyrainin,SoftwareType,DateUTC
2013-03-02 00:00:00,56.1,46.9,30.25,West,270,0.0,0.0,71,0.00,,,0.00,WUHU21623XXSP,2013-03-02 05:00:00,
2013-03-02 00:05:00,55.9,46.7,30.25,West,270,0.0,0.0,71,0.00,,,0.00,WUHU21623XXSP,2013-03-02 05:05:00,
2013-03-02 00:10:00,55.6,47.0,30.25,West,270,0.0,0.0,72,0.00,,,0.00,WUHU21623XXSP,2013-03-02 05:10:00,
2013-03-02 00:15:00,55.4,46.5,30.26,West,270,0.0,0.0,72,0.00,,,0.00,WUHU21623XXSP,2013-03-02 05:15:00,
2013-03-02 00:20:00,55.2,46.4,30.25,West,270,0.0,0.0,72,0.00,,,0.00,WUHU21623XXSP,2013-03-02 05:20:00,
2013-03-02 00:25:00,54.9,46.5,30.25,West,270,0.0,0.0,73,0.00,,,0.00,WUHU21623XXSP,2013-03-02 05:25:00,
2013-03-02 00:30:00,54.7,46.2,30.26,West,270,0.0,0.0,73,0.00,,,0.00,WUHU21623XXSP,2013-03-02 05:30:00,
2013-03-02 00:35:00,54.5,46.4,30.25,West,270,0.0,0.0,74,0.00,,,0.00,WUHU21623XXSP,2013-03-02 05:35:00,
2013-03-02 00:40:00,54.3,46.2,30.26,West,270,0.0,0.0,74,0.00,,,0.00,WUHU21623XXSP,2013-03-02 05:40:00,
2013-03-02 00:45:00,54.0,45.8,30.26,West,270,0.0,0.0,74,0.00,,,0.00,WUHU21623XXSP,2013-03-02 05:45:00,
2013-03-02 00:50:00,53.8,46.0,30.25,West,270,0.0,0.0,75,0.00,,,0.00,WUHU21623XXSP,2013-03-02 05:50:00,
2013-03-02 00:55:00,53.8,46.0,30.25,West,270,0.0,0.0,75,0.00,,,0.00,WUHU21623XXSP,2013-03-02 05:55:00,
2013-03-02 01:00:00,53.4,45.7,30.25,West,270,0.0,0.0,75,0.00,,,0.00,WUHU21623XXSP,2013-03-02 06:00:00,
2013-03-02 01:05:00,53.4,46.0,30.25,North,0,0.0,0.0,76,0.00,,,0.00,WUHU21623XXSP,2013-03-02 06:05:00,
2013-03-02 01:10:00,53.2,45.9,30.25,North,0,0.0,0.0,76,0.00,,,0.00,WUHU21623XXSP,2013-03-02 06:10:00,
2013-03-02 01:15:00,52.9,45.5,30.25,West,270,0.0,0.0,76,0.00,,,0.00,WUHU21623XXSP,2013-03-02 06:15:00,
2013-03-02 01:20:00,52.9,45.5,30.25,West,270,0.0,0.0,76,0.00,,,0.00,WUHU21623XXSP,2013-03-02 06:20:00,
2013-03-02 01:25:00,52.7,45.4,30.25,West,270,0.0,0.0,76,0.00,,,0.00,WUHU21623XXSP,2013-03-02 06:25:00,
2013-03-02 01:30:00,52.5,45.5,30.25,West,270,0.0,0.0,77,0.00,,,0.00,WUHU21623XXSP,2013-03-02 06:30:00,
2013-03-02 01:35:00,52.3,45.4,30.25,West,270,0.0,0.0,77,0.00,,,0.00,WUHU21623XXSP,2013-03-02 06:35:00,
2013-03-02 01:40:00,52.2,45.2,30.24,West,270,0.0,0.0,77,0.00,,,0.00,WUHU21623XXSP,2013-03-02 06:40:00,
2013-03-02 01:45:00,52.0,45.0,30.25,West,270,0.0,0.0,77,0.00,,,0.00,WUHU21623XXSP,2013-03-02 06:45:00,
2013-03-02 01:50:00,51.8,45.0,30.25,West,270,0.0,0.0,77,0.00,,,0.00,WUHU21623XXSP,2013-03-02 06:50:00,
2013-03-02 01:55:00,51.6,45.0,30.25,West,270,0.0,0.0,78,0.00,,,0.00,WUHU21623XXSP,2013-03-02 06:55:00,
2013-03-02 02:00:00,51.6,45.0,30.25,West,270,0.0,0.0,78,0.00,,,0.00,WUHU21623XXSP,2013-03-02 07:00:00,
2013-03-02 02:05:00,51.4,44.8,30.24,West,270,0.0,0.0,78,0.00,,,0.00,WUHU21623XXSP,2013-03-02 07:05:00,
2013-03-02 02:10:00,51.4,45.2,30.24,West,270,0.0,0.0,79,0.00,,,0.00,WUHU21623XXSP,2013-03-02 07:10:00,
2013-03-02 02:15:00,51.1,44.8,30.24,West,270,0.0,0.0,79,0.00,,,0.00,WUHU21623XXSP,2013-03-02 07:15:00,
2013-03-02 02:20:00,51.1,44.8,30.24,West,270,0.0,0.0,79,0.00,,,0.00,WUHU21623XXSP,2013-03-02 07:20:00,
2013-03-02 02:25:00,50.9,44.6,30.24,West,270,0.0,0.0,79,0.00,,,0.00,WUHU21623XXSP,2013-03-02 07:25:00,
2013-03-02 02:30:00,50.7,44.4,30.24,West,270,0.0,0.0,79,0.00,,,0.00,WUHU21623XXSP,2013-03-02 07:30:00,
2013-03-02 02:35:00,50.5,44.4,30.24,West,270,0.0,0.0,79,0.00,,,0.00,WUHU21623XXSP,2013-03-02 07:35:00,
2013-03-02 02:40:00,50.5,44.3,30.24,West,270,0.0,0.0,79,0.00,,,0.00,WUHU21623XXSP,2013-03-02 07:40:00,
2013-03-02 02:45:00,50.4,44.1,30.25,West,270,0.0,0.0,79,0.00,,,0.00,WUHU21623XXSP,2013-03-02 07:45:00,
2013-03-02 02:50:00,50.2,44.2,30.24,West,270,0.0,0.0,80,0.00,,,0.00,WUHU21623XXSP,2013-03-02 07:50:00,
2013-03-02 02:55:00,50.2,44.2,30.25,North,0,0.0,0.0,80,0.00,,,0.00,WUHU21623XXSP,2013-03-02 07:55:00,
2013-03-02 03:00:00,50.0,44.1,30.24,North,0,0.0,0.0,80,0.00,,,0.00,WUHU21623XXSP,2013-03-02 08:00:00,
2013-03-02 03:05:00,49.8,43.9,30.24,West,270,0.0,0.0,80,0.00,,,0.00,WUHU21623XXSP,2013-03-02 08:05:00,
2013-03-02 03:10:00,49.8,43.9,30.24,West,270,0.0,0.0,80,0.00,,,0.00,WUHU21623XXSP,2013-03-02 08:10:00,
2013-03-02 03:15:00,49.6,43.7,30.24,West,270,0.0,0.0,80,0.00,,,0.00,WUHU21623XXSP,2013-03-02 08:15:00,
2013-03-02 03:20:00,49.6,44.0,30.24,West,270,0.0,0.0,81,0.00,,,0.00,WUHU21623XXSP,2013-03-02 08:20:00,
2013-03-02 03:25:00,49.5,43.8,30.25,West,270,0.0,0.0,81,0.00,,,0.00,WUHU21623XXSP,2013-03-02 08:25:00,
2013-03-02 03:30:00,49.3,43.6,30.25,West,270,0.0,0.0,81,0.00,,,0.00,WUHU21623XXSP,2013-03-02 08:30:00,
2013-03-02 03:35:00,49.3,43.6,30.24,West,270,0.0,0.0,81,0.00,,,0.00,WUHU21623XXSP,2013-03-02 08:35:00,
2013-03-02 03:40:00,49.3,43.6,30.24,West,270,0.0,0.0,81,0.00,,,0.00,WUHU21623XXSP,2013-03-02 08:40:00,
2013-03-02 03:45:00,49.3,43.6,30.24,West,270,0.0,0.0,81,0.00,,,0.00,WUHU21623XXSP,2013-03-02 08:45:00,
2013-03-02 03:50:00,49.3,43.6,30.24,West,270,0.0,0.0,81,0.00,,,0.00,WUHU21623XXSP,2013-03-02 08:50:00,
2013-03-02 03:55:00,49.3,43.6,30.25,North,0,0.0,0.0,81,0.00,,,0.00,WUHU21623XXSP,2013-03-02 08:55:00,
2013-03-02 04:00:00,49.3,44.0,30.25,North,0,0.0,0.0,82,0.00,,,0.00,WUHU21623XXSP,2013-03-02 09:00:00,
2013-03-02 04:05:00,49.3,44.0,30.25,North,0,0.0,0.0,82,0.00,,,0.00,WUHU21623XXSP,2013-03-02 09:05:00,
2013-03-02 04:10:00,49.1,43.8,30.25,West,270,0.0,0.0,82,0.00,,,0.00,WUHU21623XXSP,2013-03-02 09:10:00,
2013-03-02 04:15:00,49.1,43.8,30.23,West,270,0.0,0.0,82,0.00,,,0.00,WUHU21623XXSP,2013-03-02 09:15:00,
2013-03-02 04:20:00,49.1,43.8,30.24,West,270,0.0,0.0,82,0.00,,,0.00,WUHU21623XXSP,2013-03-02 09:20:00,
2013-03-02 04:25:00,49.3,44.0,30.24,West,270,0.0,0.0,82,0.00,,,0.00,WUHU21623XXSP,2013-03-02 09:25:00,
2013-03-02 04:30:00,49.3,44.0,30.24,West,270,0.0,0.0,82,0.00,,,0.00,WUHU21623XXSP,2013-03-02 09:30:00,
2013-03-02 04:35:00,49.3,44.0,30.24,West,270,0.0,0.0,82,0.00,,,0.00,WUHU21623XXSP,2013-03-02 09:35:00,
2013-03-02 04:40:00,49.3,44.0,30.24,West,270,0.0,0.0,82,0.00,,,0.00,WUHU21623XXSP,2013-03-02 09:40:00,
2013-03-02 04:45:00,49.3,44.0,30.24,West,270,0.0,0.0,82,0.00,,,0.00,WUHU21623XXSP,2013-03-02 09:45:00,
2013-03-02 04:50:00,49.3,44.0,30.24,West,270,0.0,0.0,83,0.00,,,0.00,WUHU21623XXSP,2013-03-02 09:50:00,
2013-03-02 04:55:00,49.1,43.8,30.24,West,270,0.0,0.0,82,0.00,,,0.00,WUHU21623XXSP,2013-03-02 09:55:00,
2013-03-02 05:00:00,49.1,43.8,30.24,West,270,0.0,0.0,83,0.00,,,0.00,WUHU21623XXSP,2013-03-02 10:00:00,
2013-03-02 05:05:00,48.9,43.9,30.23,West,270,0.0,0.0,83,0.00,,,0.00,WUHU21623XXSP,2013-03-02 10:05:00,
2013-03-02 05:11:00,48.9,43.9,30.23,West,270,0.0,0.0,83,0.00,,,0.00,WUHU21623XXSP,2013-03-02 10:11:00,
2013-03-02 05:16:00,48.7,43.8,30.23,West,270,0.0,0.0,83,0.00,,,0.00,WUHU21623XXSP,2013-03-02 10:16:00,
2013-03-02 05:21:00,48.7,43.8,30.23,West,270,0.0,0.0,83,0.00,,,0.00,WUHU21623XXSP,2013-03-02 10:21:00,
2013-03-02 05:26:00,48.7,43.8,30.22,West,270,0.0,0.0,83,0.00,,,0.00,WUHU21623XXSP,2013-03-02 10:26:00,
2013-03-02 05:31:00,48.6,43.6,30.22,West,270,0.0,0.0,83,0.00,,,0.00,WUHU21623XXSP,2013-03-02 10:31:00,
2013-03-02 05:36:00,48.4,43.4,30.22,West,270,0.0,0.0,83,0.00,,,0.00,WUHU21623XXSP,2013-03-02 10:36:00,
2013-03-02 05:41:00,48.4,43.4,30.22,North,0,0.0,0.0,83,0.00,,,0.00,WUHU21623XXSP,2013-03-02 10:41:00,
2013-03-02 05:46:00,48.4,43.4,30.22,North,0,0.0,0.0,83,0.00,,,0.00,WUHU21623XXSP,2013-03-02 10:46:00,
2013-03-02 05:51:00,48.2,43.7,30.21,West,270,0.0,0.0,84,0.00,,,0.00,WUHU21623XXSP,2013-03-02 10:51:00,
2013-03-02 05:56:00,48.2,43.6,30.21,West,270,0.0,0.0,84,0.00,,,0.00,WUHU21623XXSP,2013-03-02 10:56:00,
2013-03-02 06:01:00,48.0,43.4,30.21,West,270,0.0,0.0,84,0.00,,,0.00,WUHU21623XXSP,2013-03-02 11:01:00,
2013-03-02 06:06:00,48.0,43.4,30.21,West,270,0.0,0.0,84,0.00,,,0.00,WUHU21623XXSP,2013-03-02 11:06:00,
2013-03-02 06:11:00,48.0,43.4,30.20,West,270,0.0,0.0,84,0.00,,,0.00,WUHU21623XXSP,2013-03-02 11:11:00,
2013-03-02 06:16:00,48.2,43.6,30.20,West,270,0.0,0.0,84,0.00,,,0.00,WUHU21623XXSP,2013-03-02 11:16:00,
2013-03-02 06:21:00,48.0,43.4,30.20,West,270,0.0,0.0,84,0.00,,,0.00,WUHU21623XXSP,2013-03-02 11:21:00,
2013-03-02 06:26:00,48.0,43.4,30.20,West,270,0.0,0.0,84,0.00,,,0.00,WUHU21623XXSP,2013-03-02 11:26:00,
2013-03-02 06:31:00,48.0,43.6,30.20,West,270,0.0,0.0,84,0.00,,,0.00,WUHU21623XXSP,2013-03-02 11:31:00,
2013-03-02 06:36:00,48.0,43.4,30.20,West,270,0.0,0.0,84,0.00,,,0.00,WUHU21623XXSP,2013-03-02 11:36:00,
2013-03-02 06:41:00,48.0,43.4,30.20,West,270,0.0,0.0,84,0.00,,,0.00,WUHU21623XXSP,2013-03-02 11:41:00,
2013-03-02 06:46:00,48.0,43.4,30.20,West,270,0.0,0.0,84,0.00,,,0.00,WUHU21623XXSP,2013-03-02 11:46:00,
2013-03-02 06:52:00,48.0,43.4,30.21,West,270,0.0,0.0,84,0.00,,,0.00,WUHU21623XXSP,2013-03-02 11:52:00,
2013-03-02 06:57:00,48.0,43.4,30.20,West,270,0.0,0.0,84,0.00,,,0.00,WUHU21623XXSP,2013-03-02 11:57:00,
2013-03-02 07:02:00,47.8,43.2,30.20,North,0,0.0,0.0,84,0.00,,,0.00,WUHU21623XXSP,2013-03-02 12:02:00,
2013-03-02 07:07:00,47.8,43.2,30.20,North,0,0.0,0.0,84,0.00,,,0.00,WUHU21623XXSP,2013-03-02 12:07:00,
2013-03-02 07:12:00,47.8,43.2,30.20,North,0,0.0,0.0,84,0.00,,,0.00,WUHU21623XXSP,2013-03-02 12:12:00,
2013-03-02 07:17:00,47.7,43.0,30.20,West,270,0.0,0.0,84,0.00,,,0.00,WUHU21623XXSP,2013-03-02 12:17:00,
2013-03-02 07:22:00,47.5,42.9,30.20,West,270,0.0,0.0,84,0.00,,,0.00,WUHU21623XXSP,2013-03-02 12:22:00,
2013-03-02 07:27:00,47.5,42.9,30.20,West,270,0.0,0.0,84,0.00,,,0.00,WUHU21623XXSP,2013-03-02 12:27:00,
2013-03-02 07:32:00,47.5,43.2,30.20,West,270,0.0,0.0,85,0.00,,,0.00,WUHU21623XXSP,2013-03-02 12:32:00,
2013-03-02 07:37:00,47.5,43.2,30.20,West,270,0.0,0.0,85,0.00,,,0.00,WUHU21623XXSP,2013-03-02 12:37:00,
2013-03-02 07:42:00,47.5,43.2,30.20,West,270,0.0,0.0,85,0.00,,,0.00,WUHU21623XXSP,2013-03-02 12:42:00,
2013-03-02 07:47:00,47.5,43.2,30.20,West,270,0.0,0.0,85,0.00,,,0.00,WUHU21623XXSP,2013-03-02 12:47:00,
2013-03-02 07:52:00,47.5,43.2,30.19,West,270,0.0,0.0,85,0.00,,,0.00,WUHU21623XXSP,2013-03-02 12:52:00,
2013-03-02 07:57:00,47.5,43.2,30.20,West,270,0.0,0.0,85,0.00,,,0.00,WUHU21623XXSP,2013-03-02 12:57:00,
2013-03-02 08:02:00,47.5,43.2,30.20,West,270,0.0,0.0,85,0.00,,,0.00,WUHU21623XXSP,2013-03-02 13:02:00,
2013-03-02 08:13:00,47.5,43.2,30.20,West,270,0.0,0.0,85,0.00,,,0.00,WUHU21623XXSP,2013-03-02 13:13:00,
2013-03-02 08:18:00,47.5,43.2,30.20,West,270,0.0,0.0,85,0.00,,,0.00,WUHU21623XXSP,2013-03-02 13:18:00,
2013-03-02 08:23:00,47.5,43.2,30.20,West,270,0.0,0.0,85,0.00,,,0.00,WUHU21623XXSP,2013-03-02 13:23:00,
2013-03-02 08:28:00,47.5,43.2,30.20,West,270,0.0,0.0,85,0.00,,,0.00,WUHU21623XXSP,2013-03-02 13:28:00,
2013-03-02 08:33:00,47.5,43.2,30.20,West,270,0.0,0.0,85,0.00,,,0.00,WUHU21623XXSP,2013-03-02 13:33:00,
2013-03-02 08:38:00,47.5,43.2,30.20,West,270,0.0,0.0,85,0.00,,,0.00,WUHU21623XXSP,2013-03-02 13:38:00,
2013-03-02 08:43:00,47.5,43.2,30.20,West,270,0.0,0.0,85,0.00,,,0.00,WUHU21623XXSP,2013-03-02 13:43:00,
2013-03-02 08:48:00,47.3,43.0,30.20,West,270,0.0,0.0,85,0.00,,,0.00,WUHU21623XXSP,2013-03-02 13:48:00,
2013-03-02 08:53:00,47.3,43.0,30.20,West,270,0.0,0.0,85,0.00,,,0.00,WUHU21623XXSP,2013-03-02 13:53:00,
2013-03-02 08:58:00,47.3,43.3,30.20,North,0,0.0,0.0,86,0.00,,,0.00,WUHU21623XXSP,2013-03-02 13:58:00,
2013-03-02 09:03:00,47.3,43.3,30.20,North,0,0.0,0.0,86,0.00,,,0.00,WUHU21623XXSP,2013-03-02 14:03:00,
2013-03-02 09:08:00,47.3,43.3,30.20,North,0,0.0,0.0,86,0.00,,,0.00,WUHU21623XXSP,2013-03-02 14:08:00,
2013-03-02 09:13:00,47.1,43.2,30.20,West,270,0.0,0.0,86,0.00,,,0.00,WUHU21623XXSP,2013-03-02 14:13:00,
2013-03-02 09:18:00,47.3,43.3,30.20,West,270,0.0,0.0,86,0.00,,,0.00,WUHU21623XXSP,2013-03-02 14:18:00,
2013-03-02 09:23:00,47.3,43.3,30.20,West,270,0.0,0.0,86,0.00,,,0.00,WUHU21623XXSP,2013-03-02 14:23:00,
2013-03-02 09:28:00,47.3,43.3,30.19,West,270,0.0,0.0,86,0.00,,,0.00,WUHU21623XXSP,2013-03-02 14:28:00,
2013-03-02 09:33:00,47.3,43.3,30.19,West,270,0.0,0.0,86,0.00,,,0.00,WUHU21623XXSP,2013-03-02 14:33:00,
2013-03-02 09:38:00,47.3,43.3,30.19,West,270,0.0,0.0,86,0.00,,,0.00,WUHU21623XXSP,2013-03-02 14:38:00,
2013-03-02 09:43:00,47.3,43.3,30.19,West,270,0.0,0.0,86,0.00,,,0.00,WUHU21623XXSP,2013-03-02 14:43:00,
2013-03-02 09:48:00,47.5,43.5,30.19,West,270,0.0,0.0,86,0.00,,,0.00,WUHU21623XXSP,2013-03-02 14:48:00,
2013-03-02 09:53:00,47.3,43.3,30.19,North,0,0.0,0.0,86,0.00,,,0.00,WUHU21623XXSP,2013-03-02 14:53:00,
2013-03-02 09:58:00,47.5,43.5,30.20,North,0,0.0,0.0,86,0.00,,,0.00,WUHU21623XXSP,2013-03-02 14:58:00,
2013-03-02 10:03:00,47.5,43.5,30.20,North,0,0.0,0.0,86,0.00,,,0.00,WUHU21623XXSP,2013-03-02 15:03:00,
2013-03-02 10:08:00,47.5,43.5,30.20,West,270,0.0,0.0,86,0.00,,,0.00,WUHU21623XXSP,2013-03-02 15:08:00,
2013-03-02 10:13:00,47.7,43.7,30.20,West,270,0.0,0.0,86,0.00,,,0.00,WUHU21623XXSP,2013-03-02 15:13:00,
2013-03-02 10:18:00,47.8,44.2,30.20,West,270,0.0,0.0,87,0.00,,,0.00,WUHU21623XXSP,2013-03-02 15:18:00,
2013-03-02 10:23:00,48.0,44.3,30.20,West,270,0.0,0.0,87,0.00,,,0.00,WUHU21623XXSP,2013-03-02 15:23:00,
2013-03-02 10:28:00,48.0,44.3,30.20,West,270,0.0,0.0,87,0.00,,,0.00,WUHU21623XXSP,2013-03-02 15:28:00,
2013-03-02 10:33:00,48.2,44.5,30.20,West,270,0.0,0.0,87,0.00,,,0.00,WUHU21623XXSP,2013-03-02 15:33:00,
2013-03-02 10:38:00,48.4,44.7,30.20,West,270,0.0,0.0,87,0.00,,,0.00,WUHU21623XXSP,2013-03-02 15:38:00,
2013-03-02 10:43:00,48.7,45.0,30.20,West,270,0.0,0.0,87,0.00,,,0.00,WUHU21623XXSP,2013-03-02 15:43:00,
2013-03-02 10:48:00,49.1,45.4,30.21,West,270,0.0,0.0,87,0.00,,,0.00,WUHU21623XXSP,2013-03-02 15:48:00,
2013-03-02 10:53:00,49.6,45.2,30.21,West,270,0.0,0.0,86,0.00,,,0.00,WUHU21623XXSP,2013-03-02 15:53:00,
2013-03-02 10:58:00,50.0,45.7,30.21,West,270,0.0,0.0,86,0.00,,,0.00,WUHU21623XXSP,2013-03-02 15:58:00,
2013-03-02 11:03:00,50.7,46.7,30.21,North,0,0.0,0.0,87,0.00,,,0.00,WUHU21623XXSP,2013-03-02 16:03:00,
2013-03-02 11:08:00,51.1,47.3,30.21,North,0,0.0,0.0,87,0.00,,,0.00,WUHU21623XXSP,2013-03-02 16:08:00,
2013-03-02 11:13:00,52.2,47.5,30.21,West,270,0.0,0.0,86,0.00,,,0.00,WUHU21623XXSP,2013-03-02 16:13:00,
2013-03-02 11:18:00,52.9,48.6,30.22,West,270,0.0,0.0,86,0.00,,,0.00,WUHU21623XXSP,2013-03-02 16:18:00,
2013-03-02 11:23:00,53.4,49.1,30.21,West,270,0.0,0.0,85,0.00,,,0.00,WUHU21623XXSP,2013-03-02 16:23:00,
2013-03-02 11:28:00,53.8,49.0,30.21,West,270,0.0,0.0,85,0.00,,,0.00,WUHU21623XXSP,2013-03-02 16:28:00,
2013-03-02 11:33:00,54.3,49.5,30.21,West,270,0.0,0.0,84,0.00,,,0.00,WUHU21623XXSP,2013-03-02 16:33:00,
2013-03-02 11:38:00,55.2,50.1,30.21,West,270,0.0,0.0,83,0.00,,,0.00,WUHU21623XXSP,2013-03-02 16:38:00,
2013-03-02 11:43:00,55.8,50.3,30.21,West,270,0.0,0.0,82,0.00,,,0.00,WUHU21623XXSP,2013-03-02 16:43:00,
2013-03-02 11:48:00,56.1,50.6,30.21,West,270,0.0,0.0,82,0.00,,,0.00,WUHU21623XXSP,2013-03-02 16:48:00,
2013-03-02 11:53:00,56.8,51.0,30.21,West,270,0.0,0.0,81,0.00,,,0.00,WUHU21623XXSP,2013-03-02 16:53:00,
2013-03-02 11:58:00,57.4,50.9,30.21,West,270,0.0,0.0,80,0.00,,,0.00,WUHU21623XXSP,2013-03-02 16:58:00,
2013-03-02 12:03:00,57.6,51.1,30.21,West,270,0.0,0.0,79,0.00,,,0.00,WUHU21623XXSP,2013-03-02 17:03:00,
2013-03-02 12:08:00,57.9,51.1,30.21,West,270,0.0,0.0,78,0.00,,,0.00,WUHU21623XXSP,2013-03-02 17:08:00,
2013-03-02 12:13:00,58.6,51.8,30.21,West,270,0.0,0.0,78,0.00,,,0.00,WUHU21623XXSP,2013-03-02 17:13:00,
2013-03-02 12:18:00,58.8,51.6,30.20,West,270,0.0,0.0,77,0.00,,,0.00,WUHU21623XXSP,2013-03-02 17:18:00,
2013-03-02 12:23:00,59.2,51.6,30.21,North,0,0.0,0.0,76,0.00,,,0.00,WUHU21623XXSP,2013-03-02 17:23:00,
2013-03-02 12:28:00,60.1,52.2,30.20,North,0,0.0,0.0,76,0.00,,,0.00,WUHU21623XXSP,2013-03-02 17:28:00,
2013-03-02 12:33:00,60.6,52.3,30.21,West,270,0.0,0.0,74,0.00,,,0.00,WUHU21623XXSP,2013-03-02 17:33:00,
2013-03-02 12:38:00,61.0,52.5,30.21,West,270,0.0,0.0,74,0.00,,,0.00,WUHU21623XXSP,2013-03-02 17:38:00,
2013-03-02 12:43:00,61.7,52.8,30.20,West,270,0.0,0.0,72,0.00,,,0.00,WUHU21623XXSP,2013-03-02 17:43:00,
2013-03-02 12:48:00,62.2,52.7,30.20,West,270,0.0,0.0,71,0.00,,,0.00,WUHU21623XXSP,2013-03-02 17:48:00,
2013-03-02 12:53:00,62.4,52.9,30.20,West,270,0.0,0.0,71,0.00,,,0.00,WUHU21623XXSP,2013-03-02 17:53:00,
2013-03-02 12:58:00,63.1,53.1,30.20,West,270,0.0,0.0,70,0.00,,,0.00,WUHU21623XXSP,2013-03-02 17:58:00,
2013-03-02 13:03:00,63.5,53.2,30.19,NNW,337,0.0,0.0,69,0.00,,,0.00,WUHU21623XXSP,2013-03-02 18:03:00,
2013-03-02 13:08:00,63.5,52.8,30.20,NNW,337,0.0,0.0,68,0.00,,,0.00,WUHU21623XXSP,2013-03-02 18:08:00,
2013-03-02 13:13:00,64.0,53.3,30.19,NNW,337,0.0,0.0,68,0.00,,,0.00,WUHU21623XXSP,2013-03-02 18:13:00,
2013-03-02 13:18:00,64.6,52.9,30.20,NNW,337,0.0,0.0,66,0.00,,,0.00,WUHU21623XXSP,2013-03-02 18:18:00,
2013-03-02 13:23:00,65.5,53.4,30.19,NNW,337,0.0,0.0,65,0.00,,,0.00,WUHU21623XXSP,2013-03-02 18:23:00,
2013-03-02 13:28:00,66.0,53.7,30.19,NNW,337,0.0,0.0,64,0.00,,,0.00,WUHU21623XXSP,2013-03-02 18:28:00,
2013-03-02 13:33:00,66.6,53.1,30.19,North,0,0.0,0.0,62,0.00,,,0.00,WUHU21623XXSP,2013-03-02 18:33:00,
2013-03-02 13:38:00,66.4,53.0,30.19,North,0,0.0,0.0,62,0.00,,,0.00,WUHU21623XXSP,2013-03-02 18:38:00,
2013-03-02 13:43:00,66.7,53.3,30.18,North,0,0.0,0.0,62,0.00,,,0.00,WUHU21623XXSP,2013-03-02 18:43:00,
2013-03-02 13:48:00,67.3,53.4,30.19,NNW,337,0.0,0.0,61,0.00,,,0.00,WUHU21623XXSP,2013-03-02 18:48:00,
2013-03-02 13:53:00,67.6,53.7,30.18,NNW,337,0.0,0.0,61,0.00,,,0.00,WUHU21623XXSP,2013-03-02 18:53:00,
2013-03-02 13:58:00,67.8,53.4,30.18,NNW,337,0.0,0.0,60,0.00,,,0.00,WUHU21623XXSP,2013-03-02 18:58:00,
2013-03-02 14:03:00,68.2,53.5,30.18,NNW,337,0.0,0.0,59,0.00,,,0.00,WUHU21623XXSP,2013-03-02 19:03:00,
2013-03-02 14:08:00,68.9,54.0,30.18,North,0,0.0,0.0,59,0.00,,,0.00,WUHU21623XXSP,2013-03-02 19:08:00,
2013-03-02 14:13:00,69.3,53.9,30.17,North,0,0.0,0.0,58,0.00,,,0.00,WUHU21623XXSP,2013-03-02 19:13:00,
2013-03-02 14:18:00,69.6,53.2,30.17,North,0,0.0,0.0,56,0.00,,,0.00,WUHU21623XXSP,2013-03-02 19:18:00,
2013-03-02 14:23:00,69.6,53.7,30.17,North,0,0.0,0.0,57,0.00,,,0.00,WUHU21623XXSP,2013-03-02 19:23:00,
2013-03-02 14:28:00,70.0,54.0,30.17,North,0,0.0,0.0,57,0.00,,,0.00,WUHU21623XXSP,2013-03-02 19:28:00,
2013-03-02 14:33:00,70.7,54.7,30.17,North,0,0.0,5.1,57,0.00,,,0.00,WUHU21623XXSP,2013-03-02 19:33:00,
2013-03-02 14:38:00,70.9,54.4,30.17,North,0,0.0,5.1,56,0.00,,,0.00,WUHU21623XXSP,2013-03-02 19:38:00,
2013-03-02 14:43:00,71.2,54.7,30.17,North,0,0.0,0.0,56,0.00,,,0.00,WUHU21623XXSP,2013-03-02 19:43:00,
2013-03-02 14:48:00,71.4,54.3,30.16,North,0,0.0,0.0,55,0.00,,,0.00,WUHU21623XXSP,2013-03-02 19:48:00,
2013-03-02 14:53:00,71.2,54.2,30.16,North,0,0.0,0.0,55,0.00,,,0.00,WUHU21623XXSP,2013-03-02 19:53:00,
2013-03-02 14:58:00,71.2,54.2,30.16,North,0,0.0,0.0,55,0.00,,,0.00,WUHU21623XXSP,2013-03-02 19:58:00,
2013-03-02 15:04:00,71.8,54.7,30.16,North,0,0.0,0.0,55,0.00,,,0.00,WUHU21623XXSP,2013-03-02 20:04:00,
2013-03-02 15:09:00,72.0,54.2,30.15,North,0,0.0,0.0,54,0.00,,,0.00,WUHU21623XXSP,2013-03-02 20:09:00,
2013-03-02 15:14:00,72.0,54.3,30.15,North,0,0.0,0.0,54,0.00,,,0.00,WUHU21623XXSP,2013-03-02 20:14:00,
2013-03-02 15:19:00,72.1,54.5,30.15,NNE,22,0.0,0.0,54,0.00,,,0.00,WUHU21623XXSP,2013-03-02 20:19:00,
2013-03-02 15:24:00,73.2,54.4,30.14,NNE,22,0.0,0.7,52,0.00,,,0.00,WUHU21623XXSP,2013-03-02 20:24:00,
2013-03-02 15:29:00,72.7,54.0,30.14,NNE,22,0.0,0.7,52,0.00,,,0.00,WUHU21623XXSP,2013-03-02 20:29:00,
2013-03-02 15:34:00,72.5,53.8,30.14,NNE,22,0.0,0.0,52,0.00,,,0.00,WUHU21623XXSP,2013-03-02 20:34:00,
2013-03-02 15:39:00,72.3,53.6,30.13,NNE,22,0.0,0.0,52,0.00,,,0.00,WUHU21623XXSP,2013-03-02 20:39:00,
2013-03-02 15:43:00,72.3,53.6,30.13,North,0,0.0,0.0,52,0.00,,,0.00,WUHU21623XXSP,2013-03-02 20:43:00,
2013-03-02 15:49:00,72.3,53.6,30.13,North,0,0.0,0.0,52,0.00,,,0.00,WUHU21623XXSP,2013-03-02 20:49:00,
2013-03-02 15:53:00,73.0,54.3,30.13,North,0,0.0,0.0,52,0.00,,,0.00,WUHU21623XXSP,2013-03-02 20:53:00,
2013-03-02 15:59:00,73.0,53.8,30.12,North,0,0.0,0.0,51,0.00,,,0.00,WUHU21623XXSP,2013-03-02 20:59:00,
2013-03-02 16:04:00,73.0,53.8,30.13,North,0,0.0,0.0,51,0.00,,,0.00,WUHU21623XXSP,2013-03-02 21:04:00,
2013-03-02 16:09:00,73.2,53.9,30.13,North,0,0.0,2.0,51,0.00,,,0.00,WUHU21623XXSP,2013-03-02 21:09:00,
2013-03-02 16:14:00,73.2,53.4,30.12,North,0,0.0,2.0,50,0.00,,,0.00,WUHU21623XXSP,2013-03-02 21:14:00,
2013-03-02 16:19:00,73.0,53.3,30.13,NNW,337,0.9,0.9,50,0.00,,,0.00,WUHU21623XXSP,2013-03-02 21:19:00,
2013-03-02 16:24:00,72.9,53.1,30.13,NNW,337,0.0,0.9,50,0.00,,,0.00,WUHU21623XXSP,2013-03-02 21:24:00,
2013-03-02 16:29:00,72.9,53.5,30.11,North,0,0.0,0.0,51,0.00,,,0.00,WUHU21623XXSP,2013-03-02 21:29:00,
2013-03-02 16:34:00,72.7,53.5,30.11,NNW,337,0.0,0.0,51,0.00,,,0.00,WUHU21623XXSP,2013-03-02 21:34:00,
2013-03-02 16:39:00,72.9,53.6,30.11,NNW,337,0.0,0.0,51,0.00,,,0.00,WUHU21623XXSP,2013-03-02 21:39:00,
2013-03-02 16:44:00,73.2,53.9,30.10,North,0,0.0,0.0,51,0.00,,,0.00,WUHU21623XXSP,2013-03-02 21:44:00,
2013-03-02 16:49:00,73.2,53.9,30.10,North,0,0.0,0.0,51,0.00,,,0.00,WUHU21623XXSP,2013-03-02 21:49:00,
2013-03-02 16:54:00,73.4,53.6,30.10,North,0,0.0,0.0,50,0.00,,,0.00,WUHU21623XXSP,2013-03-02 21:54:00,
2013-03-02 16:59:00,73.6,53.8,30.09,North,0,0.0,0.0,50,0.00,,,0.00,WUHU21623XXSP,2013-03-02 21:59:00,
2013-03-02 17:04:00,73.2,53.4,30.10,North,0,0.0,0.0,50,0.00,,,0.00,WUHU21623XXSP,2013-03-02 22:04:00,
2013-03-02 17:10:00,73.2,53.4,30.09,North,0,0.0,0.0,50,0.00,,,0.00,WUHU21623XXSP,2013-03-02 22:10:00,
2013-03-02 17:15:00,73.2,53.4,30.09,North,0,0.0,0.0,50,0.00,,,0.00,WUHU21623XXSP,2013-03-02 22:15:00,
2013-03-02 17:20:00,73.4,53.6,30.08,North,0,0.0,0.0,50,0.00,,,0.00,WUHU21623XXSP,2013-03-02 22:20:00,
2013-03-02 17:25:00,73.9,54.1,30.08,North,0,0.0,0.0,50,0.00,,,0.00,WUHU21623XXSP,2013-03-02 22:25:00,
2013-03-02 17:30:00,74.1,53.7,30.08,North,0,0.0,0.0,49,0.00,,,0.00,WUHU21623XXSP,2013-03-02 22:30:00,
2013-03-02 17:35:00,74.3,53.9,30.08,North,0,0.0,0.0,49,0.00,,,0.00,WUHU21623XXSP,2013-03-02 22:35:00,
2013-03-02 17:40:00,74.1,53.7,30.08,North,0,0.0,0.0,49,0.00,,,0.00,WUHU21623XXSP,2013-03-02 22:40:00,
2013-03-02 17:45:00,73.8,53.5,30.08,North,0,0.0,0.0,49,0.00,,,0.00,WUHU21623XXSP,2013-03-02 22:45:00,
2013-03-02 17:50:00,73.6,53.3,30.08,North,0,0.0,0.0,49,0.00,,,0.00,WUHU21623XXSP,2013-03-02 22:50:00,
2013-03-02 17:55:00,73.8,53.3,30.08,NNW,337,0.0,0.0,49,0.00,,,0.00,WUHU21623XXSP,2013-03-02 22:55:00,
2013-03-02 18:00:00,73.6,52.6,30.08,NNW,337,0.0,2.0,48,0.00,,,0.00,WUHU21623XXSP,2013-03-02 23:00:00,
2013-03-02 18:05:00,73.4,51.2,30.07,North,0,0.0,2.0,46,0.00,,,0.00,WUHU21623XXSP,2013-03-02 23:05:00,
2013-03-02 18:10:00,73.0,51.5,30.07,NNE,22,0.0,0.0,47,0.00,,,0.00,WUHU21623XXSP,2013-03-02 23:10:00,
2013-03-02 18:15:00,72.9,51.3,30.07,NNE,22,0.0,0.0,47,0.00,,,0.00,WUHU21623XXSP,2013-03-02 23:15:00,
2013-03-02 18:20:00,73.0,50.9,30.07,North,0,0.0,0.0,46,0.00,,,0.00,WUHU21623XXSP,2013-03-02 23:20:00,
2013-03-02 18:25:00,72.7,50.6,30.07,NNE,22,0.0,0.0,46,0.00,,,0.00,WUHU21623XXSP,2013-03-02 23:25:00,
2013-03-02 18:30:00,72.5,50.4,30.07,NNW,337,0.0,2.9,46,0.00,,,0.00,WUHU21623XXSP,2013-03-02 23:30:00,
2013-03-02 18:35:00,72.3,50.3,30.07,North,0,0.0,2.9,46,0.00,,,0.00,WUHU21623XXSP,2013-03-02 23:35:00,
2013-03-02 18:40:00,72.1,50.7,30.07,NW,315,0.0,0.0,47,0.00,,,0.00,WUHU21623XXSP,2013-03-02 23:40:00,
2013-03-02 18:45:00,72.0,50.5,30.06,WNW,292,0.0,0.0,47,0.00,,,0.00,WUHU21623XXSP,2013-03-02 23:45:00,
2013-03-02 18:50:00,71.4,50.0,30.07,NNW,337,0.0,0.0,47,0.00,,,0.00,WUHU21623XXSP,2013-03-02 23:50:00,
2013-03-02 18:55:00,70.9,50.5,30.07,North,0,0.0,0.0,48,0.00,,,0.00,WUHU21623XXSP,2013-03-02 23:55:00,
2013-03-02 19:00:00,70.3,50.3,30.07,North,0,0.0,0.0,49,0.00,,,0.00,WUHU21623XXSP,2013-03-03 00:00:00,
2013-03-02 19:05:00,70.0,50.5,30.07,North,0,0.0,0.0,50,0.00,,,0.00,WUHU21623XXSP,2013-03-03 00:05:00,
2013-03-02 19:10:00,70.0,50.5,30.07,North,0,0.0,0.0,50,0.00,,,0.00,WUHU21623XXSP,2013-03-03 00:10:00,
2013-03-02 19:15:00,69.6,50.2,30.07,North,0,0.0,0.0,50,0.00,,,0.00,WUHU21623XXSP,2013-03-03 00:15:00,
2013-03-02 19:20:00,69.1,50.2,30.06,North,0,0.0,0.0,51,0.00,,,0.00,WUHU21623XXSP,2013-03-03 00:20:00,
2013-03-02 19:25:00,68.9,50.0,30.06,North,0,0.0,0.0,51,0.00,,,0.00,WUHU21623XXSP,2013-03-03 00:25:00,
2013-03-02 19:31:00,68.4,50.0,30.05,North,0,0.0,0.0,52,0.00,,,0.00,WUHU21623XXSP,2013-03-03 00:31:00,
2013-03-02 19:36:00,68.2,50.4,30.06,North,0,0.0,0.0,53,0.00,,,0.00,WUHU21623XXSP,2013-03-03 00:36:00,
2013-03-02 19:41:00,67.8,50.0,30.06,North,0,0.0,0.0,53,0.00,,,0.00,WUHU21623XXSP,2013-03-03 00:41:00,
2013-03-02 19:46:00,67.6,49.9,30.06,WNW,292,0.0,0.0,53,0.00,,,0.00,WUHU21623XXSP,2013-03-03 00:46:00,
2013-03-02 19:51:00,67.3,50.0,30.06,WNW,292,0.0,0.0,54,0.00,,,0.00,WUHU21623XXSP,2013-03-03 00:51:00,
2013-03-02 19:56:00,67.3,50.0,30.07,WNW,292,0.0,0.0,54,0.00,,,0.00,WUHU21623XXSP,2013-03-03 00:56:00,
2013-03-02 20:01:00,67.1,50.0,30.07,WNW,292,0.0,0.0,55,0.00,,,0.00,WUHU21623XXSP,2013-03-03 01:01:00,
2013-03-02 20:06:00,67.1,50.4,30.07,WNW,292,0.0,0.0,55,0.00,,,0.00,WUHU21623XXSP,2013-03-03 01:06:00,
2013-03-02 20:11:00,66.7,50.0,30.06,WNW,292,0.0,0.0,55,0.00,,,0.00,WUHU21623XXSP,2013-03-03 01:11:00,
2013-03-02 20:16:00,66.7,50.0,30.06,North,0,0.0,0.0,55,0.00,,,0.00,WUHU21623XXSP,2013-03-03 01:16:00,
2013-03-02 20:21:00,66.4,49.7,30.06,North,0,0.0,0.0,55,0.00,,,0.00,WUHU21623XXSP,2013-03-03 01:21:00,
2013-03-02 20:26:00,66.4,49.7,30.07,WNW,292,0.0,0.0,55,0.00,,,0.00,WUHU21623XXSP,2013-03-03 01:26:00,
2013-03-02 20:31:00,66.2,50.0,30.07,WNW,292,0.0,0.0,56,0.00,,,0.00,WUHU21623XXSP,2013-03-03 01:31:00,
2013-03-02 20:36:00,66.2,50.0,30.07,WNW,292,0.0,0.0,56,0.00,,,0.00,WUHU21623XXSP,2013-03-03 01:36:00,
2013-03-02 20:41:00,66.0,49.9,30.07,WNW,292,0.0,0.0,56,0.00,,,0.00,WUHU21623XXSP,2013-03-03 01:41:00,
2013-03-02 20:46:00,65.8,49.7,30.07,WNW,292,0.0,0.0,56,0.00,,,0.00,WUHU21623XXSP,2013-03-03 01:46:00,
2013-03-02 20:51:00,65.8,49.7,30.07,WNW,292,0.0,0.0,56,0.00,,,0.00,WUHU21623XXSP,2013-03-03 01:51:00,
2013-03-02 20:56:00,65.5,49.3,30.07,WNW,292,0.0,0.0,57,0.00,,,0.00,WUHU21623XXSP,2013-03-03 01:56:00,
2013-03-02 21:01:00,65.1,49.6,30.07,WNW,292,0.0,0.0,57,0.00,,,0.00,WUHU21623XXSP,2013-03-03 02:01:00,
2013-03-02 21:06:00,65.1,49.4,30.07,WNW,292,0.0,0.0,57,0.00,,,0.00,WUHU21623XXSP,2013-03-03 02:06:00,
2013-03-02 21:12:00,64.8,49.1,30.08,North,0,0.0,0.0,57,0.00,,,0.00,WUHU21623XXSP,2013-03-03 02:12:00,
2013-03-02 21:17:00,64.6,48.9,30.08,North,0,0.0,0.0,58,0.00,,,0.00,WUHU21623XXSP,2013-03-03 02:17:00,
2013-03-02 21:22:00,64.2,49.0,30.08,North,0,0.0,0.0,58,0.00,,,0.00,WUHU21623XXSP,2013-03-03 02:22:00,
2013-03-02 21:27:00,63.7,49.5,30.08,NNW,337,6.5,6.5,60,0.00,,,0.00,WUHU21623XXSP,2013-03-03 02:27:00,
2013-03-02 21:32:00,63.3,49.6,30.08,North,0,0.0,6.5,61,0.00,,,0.00,WUHU21623XXSP,2013-03-03 02:32:00,
2013-03-02 21:37:00,63.0,49.7,30.09,North,0,0.0,0.0,62,0.00,,,0.00,WUHU21623XXSP,2013-03-03 02:37:00,
2013-03-02 21:42:00,62.6,49.4,30.09,North,0,0.0,0.0,62,0.00,,,0.00,WUHU21623XXSP,2013-03-03 02:42:00,
2013-03-02 21:47:00,62.4,49.2,30.09,North,0,0.0,0.0,62,0.00,,,0.00,WUHU21623XXSP,2013-03-03 02:47:00,
2013-03-02 21:52:00,61.9,48.7,30.10,North,0,0.0,0.0,62,0.00,,,0.00,WUHU21623XXSP,2013-03-03 02:52:00,
2013-03-02 21:57:00,61.7,49.0,30.10,North,0,0.0,0.0,63,0.00,,,0.00,WUHU21623XXSP,2013-03-03 02:57:00,
2013-03-02 22:02:00,61.3,49.1,30.10,North,0,0.0,0.0,64,0.00,,,0.00,WUHU21623XXSP,2013-03-03 03:02:00,
2013-03-02 22:07:00,61.3,49.1,30.10,North,0,0.0,0.0,64,0.00,,,0.00,WUHU21623XXSP,2013-03-03 03:07:00,
2013-03-02 22:12:00,61.0,49.2,30.10,North,0,0.0,0.0,65,0.00,,,0.00,WUHU21623XXSP,2013-03-03 03:12:00,
2013-03-02 22:17:00,61.0,49.2,30.10,North,0,0.0,0.0,65,0.00,,,0.00,WUHU21623XXSP,2013-03-03 03:17:00,
2013-03-02 22:22:00,60.4,49.1,30.10,North,0,0.0,0.0,66,0.00,,,0.00,WUHU21623XXSP,2013-03-03 03:22:00,
2013-03-02 22:27:00,60.1,48.7,30.10,North,0,0.0,0.0,66,0.00,,,0.00,WUHU21623XXSP,2013-03-03 03:27:00,
2013-03-02 22:32:00,59.9,48.9,30.10,North,0,0.0,0.0,67,0.00,,,0.00,WUHU21623XXSP,2013-03-03 03:32:00,
2013-03-02 22:37:00,59.5,48.6,30.10,North,0,0.0,0.0,67,0.00,,,0.00,WUHU21623XXSP,2013-03-03 03:37:00,
2013-03-02 22:42:00,59.2,48.6,30.10,North,0,0.0,0.0,68,0.00,,,0.00,WUHU21623XXSP,2013-03-03 03:42:00,
2013-03-02 22:47:00,58.8,48.7,30.10,North,0,0.0,0.0,69,0.00,,,0.00,WUHU21623XXSP,2013-03-03 03:47:00,
2013-03-02 22:52:00,58.8,48.7,30.10,North,0,0.0,0.0,69,0.00,,,0.00,WUHU21623XXSP,2013-03-03 03:52:00,
2013-03-02 22:57:00,58.8,48.7,30.11,North,0,0.0,0.0,69,0.00,,,0.00,WUHU21623XXSP,2013-03-03 03:57:00,
2013-03-02 23:02:00,58.6,48.9,30.11,North,0,0.0,0.0,70,0.00,,,0.00,WUHU21623XXSP,2013-03-03 04:02:00,
2013-03-02 23:07:00,58.6,48.9,30.10,North,0,0.0,0.0,70,0.00,,,0.00,WUHU21623XXSP,2013-03-03 04:07:00,
2013-03-02 23:12:00,58.3,48.6,30.10,North,0,0.0,0.0,70,0.00,,,0.00,WUHU21623XXSP,2013-03-03 04:12:00,
2013-03-02 23:17:00,58.3,48.9,30.10,North,0,0.0,0.0,71,0.00,,,0.00,WUHU21623XXSP,2013-03-03 04:17:00,
2013-03-02 23:22:00,58.1,48.7,30.09,North,0,0.0,0.0,71,0.00,,,0.00,WUHU21623XXSP,2013-03-03 04:22:00,
2013-03-02 23:29:00,57.9,48.6,30.09,North,0,0.0,0.0,71,0.00,,,0.00,WUHU21623XXSP,2013-03-03 04:29:00,
2013-03-02 23:34:00,57.9,48.6,30.09,North,0,0.0,0.0,71,0.00,,,0.00,WUHU21623XXSP,2013-03-03 04:34:00,
2013-03-02 23:39:00,57.9,48.9,30.09,North,0,0.0,0.0,72,0.00,,,0.00,WUHU21623XXSP,2013-03-03 04:39:00,
2013-03-02 23:44:00,57.7,48.7,30.09,North,0,0.0,0.0,72,0.00,,,0.00,WUHU21623XXSP,2013-03-03 04:44:00,
2013-03-02 23:49:00,57.7,48.7,30.09,North,0,0.0,0.0,72,0.00,,,0.00,WUHU21623XXSP,2013-03-03 04:49:00,
2013-03-02 23:54:00,57.6,48.7,30.09,North,0,0.0,0.0,72,0.00,,,0.00,WUHU21623XXSP,2013-03-03 04:54:00,
2013-03-02 23:59:00,57.6,48.9,30.09,North,0,0.0,0.0,73,0.00,,,0.00,WUHU21623XXSP,2013-03-03 04:59:00,